www.pogodaiklimat.ru

Погода и климат >> Архив погоды >> Индия >> Мадхья-Прадеш >> Сатна


ПОГОДА в Сатне

  • Прогноз погоды в Сатне
  • Монитор погоды в Сатне

АРХИВ ПОГОДЫ в Сатне

Время (UTC), дата Ветер
(напр.,м/с)
 
Видим.   Явления Облачность Т
(С)
Тd
(С)
f
(%)
Тe
(С)
Тes
(С)
Комфортность P
(гПа)
Po
(гПа)
Тmin
(С)
Tmax
(С)
R
(мм)
R24
(мм)
S
(см)
03 16.09 Ю 1 4000 м 5/5 750 м
[Sc]
+27.8 +25.2 86 +40 +45 очень
душно
1004.3 968.9 +25.5
06 16.09 СВ 1 4000 м 5/5 750 м
[Cu Sc]
+32.2 +24.8 65 +45 +57 опасность
перегрева
1003.2 968.3
09 16.09 штиль 0 4000 м 9/5 450 м
[St Ac trans]
+31.8 +25.0 67 +45 +50 опасность
перегрева
1000.2 965.4
12 16.09 штиль 0 4000 м 8/5 450 м
[St Ac trans]
+30.2 +25.1 74 +44 +44 опасность
перегрева
999.7 964.7 +33.4
15 16.09 штиль 0 4000 м {морось} 3/3 750 м
[Sc]
+29.0 +25.6 82 +43 +43 опасность
перегрева
1002.1 966.9 0.0
18 16.09 СВ 1 4000 м зарница {морось} 10/6 450 м
[Cb cap Ac trans]
+28.0 +25.4 86 +41 +41 опасность
перегрева
1002.9 967.6 0.0
21 16.09 В 1 4000 м зарница 10/8 450 м
[Cb cap Ac trans]
+27.0 +24.4 86 +38 +38 очень
душно
1002.7 967.3 0.0
00 17.09 штиль 0 4000 м зарница {дождь} 10/8 450 м
[Cb cap Ac trans]
+24.6 +23.5 94 +33 +33 очень
душно
1001.9 966.2 1
03 17.09 СВ 1 4000 м 10/6 450 м
[St Ac trans]
+26.4 +24.7 90 +37 +39 очень
душно
1005.4 969.8 +24.2 1
06 17.09 штиль 0 4000 м {дождь} 10/8 450 м
[St Ac trans]
+27.2 +24.3 84 +38 +40 очень
душно
1004.9 969.4 0.3
09 17.09 штиль 0 4000 м 10/5 750 м
[Sc Ac trans]
+30.0 +25.2 76 +44 +47 опасность
перегрева
1002.3 967.2 0.3
12 17.09 штиль 0 4000 м 8/5 750 м
[Cb cap Ac trans]
+30.0 +24.9 74 +43 +43 опасность
перегрева
1001.9 966.8 +31.2 0.3
15 17.09 ЮВ 1 4000 м гроза без осадков 10/6 750 м
[Cb cap Ac trans]
+27.2 +23.7 81 +37 +37 очень
душно
1005.2 969.7 0.3
18 17.09 штиль 0 4000 м {гроза, дождь} 10/6 750 м
[Sc Ac trans]
+25.8 +23.8 89 +35 +35 очень
душно
1005.7 970.0 1
21 17.09 штиль 0 4000 м слаб. дождь 10/6 450 м
[Frnb Ac trans]
+25.6 +24.7 95 +36 +36 очень
душно
1004.3 968.6 6
00 18.09 штиль 0 4000 м гроза без осадков 10/6 750 м
[Cb cap Ac trans]
+25.0 +24.1 95 +34 +34 очень
душно
1005.4 969.6 6
03 18.09 штиль 0 4000 м слаб. дождь {гроза} 10/8 450 м
[Cb cap As op]
+24.6 +23.7 95 +33 +34 очень
душно
1008.1 972.2 +23.8 7
06 18.09 штиль 0 4000 м слаб. дождь {гроза} 10/8 450 м
[Cb cap As op]
+25.0 +24.4 96 +35 +36 очень
душно
1008.5 972.6 11
09 18.09 штиль 0 4000 м 10/6 450 м
[St Ac trans]
+28.0 +25.4 86 +41 +44 опасность
перегрева
1006.7 971.2 11
12 18.09 В 1 4000 м 10/6 450 м
[St Ac trans]
+27.6 +25.3 87 +40 +40 очень
душно
1006.1 970.6 +28.1 11
15 18.09 ЮВ 1 4000 м 8/4 450 м
[St Ac trans]
+26.2 +24.8 92 +37 +37 очень
душно
1007.8 972.1 11
18 18.09 штиль 0 4000 м гроза без осадков 10/8 450 м
[Cb cap Ac trans]
+25.6 +24.1 91 +35 +35 очень
душно
1009.2 973.4 11
21 18.09 штиль 0 4000 м 10/6 450 м
[St Ac trans]
+25.6 +24.4 93 +36 +36 очень
душно
1007.9 972.1 11
00 19.09 штиль 0 4000 м 10/6 450 м
[St Ac trans]
+25.2 +24.6 96 +35 +35 очень
душно
1008.2 972.4 11
03 19.09 штиль 0 4000 м 9/5 750 м
[Sc Ac trans]
+27.0 +25.3 90 +39 +41 очень
душно
1009.7 974.0 +24.8 11
06 19.09 штиль 0 4000 м 10/6 450 м
[St Ac trans]
+29.2 +25.2 79 +42 +46 опасность
перегрева
1009.2 973.8
09 19.09 С 1 4000 м гроза без осадков 10/6 450 м
[Cb cap Ac trans]
+28.0 +25.4 86 +41 +43 опасность
перегрева
1006.7 971.2
12 19.09 СВ 2 4000 м гроза, ливневой дождь 10/8 450 м
[Cb cap Ac trans]
+26.4 +23.8 86 +36 +36 очень
душно
1007.2 971.5 +29.8 0.6
15 19.09 штиль 0 4000 м {гроза} 10/6 750 м
[Cb cap Ac trans]
+25.6 +24.1 91 +35 +35 очень
душно
1008.5 972.7 0.6
18 19.09 штиль 0 4000 м {гроза} 9/5 750 м
[Sc Ac trans]
+25.0 +23.5 91 +34 +34 очень
душно
1008.5 972.6 0.6
21 19.09 штиль 0 4000 м 8/4 750 м
[Sc Ac trans]
+24.4 +23.2 93 +33 +33 очень
душно
1007.3 971.4 0.6
00 20.09 штиль 0 4000 м 9/5 750 м
[Sc Ac trans]
+25.0 +24.4 96 +35 +35 очень
душно
1007.8 971.9 0.6
03 20.09 СВ 1 4000 м 6/4 750 м
[Sc Ci fib]
+26.6 +24.9 90 +38 +42 очень
душно
1009.2 973.5 +23.8 0.6
06 20.09 Ю 1 4000 м 6/6 750 м
[Cu Sc]
+31.0 +25.4 72 +45 +54 опасность
перегрева
1008.1 972.9
09 20.09 штиль 0 4000 м 5/5 750 м
[Cu Sc]
+33.0 +24.2 60 +45 +53 опасность
перегрева
1004.4 969.6
12 20.09 СВ 1 4000 м гроза без осадков 10/8 450 м
[Cb cap Ac trans]
+28.8 +24.2 76 +40 +40 очень
душно
1005.1 969.8 +34.2
15 20.09 штиль 0 4000 м {гроза} ясно +26.6 +24.0 86 +37 +37 очень
душно
1006.7 971.1
18 20.09 штиль 0 4000 м {гроза} 4/3 750 м
[Sc Ac trans]
+25.6 +23.9 90 +35 +35 очень
душно
1007.3 971.5
21 20.09 штиль 0 4000 м 10/6 750 м
[Sc Ac trans]
+25.8 +24.4 92 +36 +36 очень
душно
1006.8 971.1
00 21.09 штиль 0 4000 м 5/4 750 м
[Sc Ci fib]
+25.6 +24.7 95 +36 +36 очень
душно
1006.9 971.2
03 21.09 ЮЗ 1 4000 м 4/4 750 м
[Sc]
+27.6 +26.2 92 +42 +46 опасность
перегрева
1008.9 973.3 +25.1
06 21.09 штиль 0 4000 м 5/5 750 м
[Cu Sc]
+31.6 +24.2 65 +44 +56 опасность
перегрева
1006.7 971.7
09 21.09 ЮВ 1 4000 м 6/6 750 м
[Cu Sc]
+33.6 +24.5 59 +46 +52 опасность
перегрева
1002.8 968.1
12 21.09 штиль 0 4000 м 4/4 900 м
[Cu hum]
+32.4 +24.7 64 +45 +46 опасность
перегрева
1002.6 967.8 +34.1
15 21.09 В 1 4000 м зарница 10/6 750 м
[Cb cap Ac trans]
+27.0 +23.2 80 +36 +36 очень
душно
1006.8 971.2
18 21.09 Ю 1 4000 м 8/4 750 м
[Sc Ac trans]
+26.6 +23.4 83 +36 +36 очень
душно
1007.6 971.9
21 21.09 ЮВ 1 4000 м слаб. дождь 10/6 750 м
[Cb cap Ac trans]
+27.4 +23.3 78 +37 +37 очень
душно
1004.8 969.3 2
00 22.09 штиль 0 4000 м {дождь} 8/3 750 м
[Sc Ac trans]
+25.2 +24.0 93 +35 +35 очень
душно
1007.9 972.1 2
03 22.09 штиль 0 4000 м 9/5 750 м
[Sc Ac trans]
+26.0 +24.6 92 +37 +39 очень
душно
1009.6 973.8 +24.5 2
06 22.09 ЮВ 1 4000 м 9/5 750 м
[Sc Ac trans]
+29.0 +24.7 78 +41 +47 опасность
перегрева
1008.8 973.4
09 22.09 ЮВ 1 10 км 3/3 750 м
[Sc]
+31.2 +24.3 67 +43 +54 опасность
перегрева
1005.5 970.4
12 22.09 В 1 4000 м 10/6 450 м
[St Ac trans]
+29.2 +25.2 79 +42 +43 опасность
перегрева
1006.0 970.7 +31.3
15 22.09 СВ 1 4000 м в посл. час дождь 10/6 450 м
[St Ac trans]
+26.6 +25.2 92 +38 +38 очень
душно
1009.0 973.3 2
18 22.09 СВ 1 4000 м {дождь} 10/6 450 м
[St Ac trans]
+26.0 +25.1 95 +37 +37 очень
душно
1009.4 973.6 2
21 22.09 штиль 0 4000 м {дождь} 10/6 450 м
[St Ac trans]
+26.0 +25.1 95 +37 +37 очень
душно
1008.7 972.9 2
00 23.09 СВ 1 4000 м {дождь} 8/4 750 м
[Sc Ac trans]
+26.0 +25.1 95 +37 +37 очень
душно
1009.0 973.2 2

 

Местоположение метеостанции Сатна (Мадхья-Прадеш, Индия): широта 24.57 долгота 80.83 высота над уровнем моря 316 м.

В архиве по умолчанию представлена погода в Сатне за последнюю неделю. Архивные данные за месяц целиком и за предыдущие месяцы, начиная с января 2011 года, Вы можете получить, выбрав интересующий диапазон дат из раскрывающегося списка и нажав кнопку "Ввод!".


*Определитесь, кто Вы:
робот инопланетянин человек

Внимание! Время в таблицах - всемирное. Для получения местного времени необходимо прибавить поправку, которая равна 5.5 ч.

Смотрите также архив погоды в соседних городах и на ближайших метеорологических станциях:

Погода в Реве (Мадхья-Прадеш, Индия) (48 км)
Погода в Кхаджурахо (Мадхья-Прадеш, Индия) (103 км)
Погода в Сидхи (Мадхья-Прадеш, Индия) (107 км)
Погода в Банде (Уттар-Прадеш, Индия) (110 км)
Погода в Умарии (Мадхья-Прадеш, Индия) (116 км)
Погода в Аллахабаде (Уттар-Прадеш, Индия) (133 км)
Погода в Ноугонге (Мадхья-Прадеш, Индия) (150 км)
Погода в Дамо (Мадхья-Прадеш, Индия) (162 км)
Погода в Хамирпуре (Уттар-Прадеш, Индия) (168 км)
Погода в Джабалпере (Мадхья-Прадеш, Индия) (177 км)

Пояснения к столбцам:

Ветер - указаны скорость ветра в м/с - средняя за 10 мин, порывы в срок и между сроками (в фигурных скобках) и направление, откуда дует ветер: С - северный, СВ - северо-восточный, В - восточный, ЮВ - юго-восточный, Ю - южный, ЮЗ - юго-западный, З - западный, СЗ - северо-западный.
Видимость - горизонтальная дальность видимости в метрах или километрах. При видимости от 1 до 10 км при отсутствии осадков обычно наблюдается дымка, при ухудшении видимости до 1 км и менее - туман. В сухую погоду видимость может ухудшаться дымом, пылью или мглою.
Явления - указаны атмосферные явления, наблюдавшиеся в срок или в последний час перед сроком; фигурными скобками обозначены явления, наблюдавшиеся между сроками (за 1-3 часа до срока); квадратными скобками обозначены град или гололедные отложения с указанием их диаметра в мм.
Облачность - указаны через наклонную черту общая и нижняя облачность в баллах и высота нижней границы облаков в метрах; квадратными скобками обозначены формы облаков: Ci - перистые, Cs - перисто-слоистые, Cc - перисто-кучевые, Ac - высококучевые, As - высокослоистые, Sc - слоисто-кучевые, Ns - слоисто-дождевые, Cu - кучевые, Cb - кучево-дождевые. Подробнее классификацию облаков см. в Атласе облаков (PDF).
T - Температура воздуха - температура, измеренная на высоте 2 м над землей.
Td - Температура точки росы - температура, при понижении до которой содержащийся в воздухе водяной пар достигнет насыщения.
f - Относительная влажность воздуха - влажноcть воздуха, измеренная на высоте 2 м над землей.
Te - Эффективная температура - температура, которую ощущает одетый по сезону человек в тени. Характеристика душности погоды. При расчете учитывается влияние влажности воздуха и скорости ветра на теплоощущения человека.
Tes - Эффективная температура на солнце - температура, которую ощущает человек, с поправкой на солнечный нагрев. Характеристика знойности погоды. Зависит от высоты солнца над горизонтом, облачности и скорости ветра. Ночью, в пасмурную погоду, а также при ветре 12 м/с и более поправка равна нулю.
P - Атмосферное давление - приведенное к уровню моря атмосферное давление.
Po - Атмосферное давление - измеренное на уровне метеостанции атмосферное давление.
Tmin - Минимальная температура - минимум температуры воздуха на высоте 2 м над землей.
Tmax - Максимальная температура - максимум температуры воздуха на высоте 2 м над землей.
R - Количество осадков - Количество выпавших осадков за период времени, мм. При наведении курсора мыши на число - период времени, за который выпало указанное количество осадков.
R24 - Количество осадков - Количество выпавших осадков за 24 часа, мм.
S - Снежный покров - Высота снежного покрова, см. При наведении курсора мыши на число - состояние снежного покрова и степень покрытия местности в баллах.